軌道要素
Epoch 2023 Feb. 25.0 TT = JDT 2460000.5
T 2022 June 1.51599 TT Rudenko
q 2.1419119 (2000.0) P Q
n 0.13893387 Peri. 115.54446 +0.46296006 -0.88329027
a 3.6920192 Node 306.67791 +0.77656322 +0.44440333
e 0.4198535 Incl. 5.28942 +0.42733774 +0.14934518
P 7.09
>From 383 observations 2015 Jan. 19-2023 Jan. 21, mean residual 0".6.
|